• In Russia
  • List of Countries
  • For 7 days
  • Water Temperature
  • Satellite Maps
  • Weather Map
  • Weather Widgets
  • user-avatar
    Login

    Hourly Weather Ganja

    Today, 22 June, Thursday

    Time Temperature Precipitation Wind Pressure Humidity
    00:00 +19°C° 0.5 mm 3 mps 721 mmHg 84%
    01:00 +19°C° 1.1 mm 3 mps 721 mmHg 86%
    02:00 +19°C° 1.1 mm 2 mps 721 mmHg 87%
    03:00 +20°C° 0 mm 1 mps 721 mmHg 90%
    04:00 +20°C° 1.7 mm 1 mps 721 mmHg 90%
    05:00 +20°C° 1.7 mm 1 mps 721 mmHg 90%
    06:00 +20°C° 1.7 mm 1 mps 721 mmHg 91%
    07:00 +20°C° 2.4 mm 1 mps 721 mmHg 89%
    08:00 +19°C° 2.4 mm 2 mps 721 mmHg 87%
    09:00 +20°C° 0 mm 2 mps 721 mmHg 87%
    10:00 +20°C° 1.3 mm 2 mps 721 mmHg 84%
    11:00 +22°C° 1.3 mm 1 mps 721 mmHg 82%
    12:00 +22°C° 1.3 mm 1 mps 721 mmHg 79%
    13:00 +23°C° 0.4 mm 2 mps 721 mmHg 76%
    14:00 +23°C° 0.4 mm 2 mps 721 mmHg 72%
    15:00 +24°C° 0.4 mm 2 mps 721 mmHg 68%
    16:00 +24°C° 0.3 mm 2 mps 721 mmHg 69%
    17:00 +24°C° 0.3 mm 1 mps 722 mmHg 70%
    18:00 +23°C° 0.3 mm 1 mps 722 mmHg 71%
    19:00 +22°C° 0.2 mm 1 mps 722 mmHg 75%
    20:00 +21°C° 0.2 mm 1 mps 723 mmHg 78%
    21:00 +18°C° 0.2 mm 0 mps 723 mmHg 81%
    22:00 +20°C° 0.1 mm 1 mps 723 mmHg 81%
    23:00 +19°C° 0.1 mm 1 mps 723 mmHg 80%

    Tomorrow, 23 June, Friday

    Time Temperature Precipitation Wind Pressure Humidity
    00:00 +19°C° 0.1 mm 1 mps 724 mmHg 80%
    01:00 +19°C° 0 mm 1 mps 724 mmHg 80%
    02:00 +18°C° 0 mm 1 mps 724 mmHg 80%
    03:00 +17°C° 0 mm 2 mps 724 mmHg 80%
    04:00 +18°C° 0 mm 2 mps 724 mmHg 78%
    05:00 +19°C° 0 mm 2 mps 724 mmHg 75%
    06:00 +20°C° 0 mm 2 mps 725 mmHg 73%
    07:00 +21°C° 0 mm 2 mps 725 mmHg 67%
    08:00 +24°C° 0 mm 3 mps 725 mmHg 61%
    09:00 +25°C° 0 mm 3 mps 725 mmHg 55%
    10:00 +26°C° 0 mm 2 mps 725 mmHg 52%
    11:00 +27°C° 0 mm 2 mps 725 mmHg 50%
    12:00 +27°C° 0 mm 2 mps 724 mmHg 48%
    13:00 +28°C° 0.1 mm 2 mps 724 mmHg 47%
    14:00 +28°C° 0.1 mm 1 mps 724 mmHg 46%
    15:00 +29°C° 0.1 mm 1 mps 724 mmHg 45%
    16:00 +29°C° 0.1 mm 1 mps 724 mmHg 47%
    17:00 +28°C° 0.1 mm 1 mps 724 mmHg 49%
    18:00 +28°C° 0.1 mm 1 mps 724 mmHg 50%
    19:00 +26°C° 0.3 mm 1 mps 725 mmHg 56%
    20:00 +24°C° 0.3 mm 2 mps 725 mmHg 62%
    21:00 +20°C° 0.3 mm 2 mps 725 mmHg 68%
    22:00 +21°C° 0.2 mm 1 mps 726 mmHg 70%
    23:00 +20°C° 0.2 mm 1 mps 726 mmHg 72%

    Day after tomorrow, 24 June, Saturday

    Time Temperature Precipitation Wind Pressure Humidity
    00:00 +20°C° 0.2 mm 1 mps 726 mmHg 75%
    01:00 +19°C° 0 mm 1 mps 726 mmHg 75%
    02:00 +19°C° 0 mm 1 mps 726 mmHg 76%
    03:00 +18°C° 0 mm 1 mps 726 mmHg 77%
    04:00 +19°C° 0 mm 1 mps 726 mmHg 74%
    05:00 +20°C° 0 mm 1 mps 726 mmHg 71%
    06:00 +21°C° 0 mm 1 mps 726 mmHg 68%
    07:00 +22°C° 0 mm 1 mps 726 mmHg 64%
    08:00 +24°C° 0 mm 1 mps 726 mmHg 61%
    09:00 +25°C° 0 mm 1 mps 726 mmHg 57%
    10:00 +26°C° 0 mm 1 mps 725 mmHg 54%
    11:00 +27°C° 0 mm 1 mps 725 mmHg 52%
    12:00 +28°C° 0 mm 1 mps 724 mmHg 49%
    13:00 +29°C° 0 mm 1 mps 724 mmHg 48%
    14:00 +29°C° 0 mm 1 mps 723 mmHg 47%
    15:00 +30°C° 0 mm 1 mps 723 mmHg 47%
    16:00 +29°C° 0.1 mm 1 mps 723 mmHg 49%
    17:00 +29°C° 0.1 mm 1 mps 723 mmHg 51%
    18:00 +29°C° 0.1 mm 1 mps 723 mmHg 53%
    19:00 +27°C° 0.1 mm 1 mps 723 mmHg 58%
    20:00 +24°C° 0.1 mm 1 mps 723 mmHg 62%
    21:00 +22°C° 0.1 mm 1 mps 723 mmHg 67%
    22:00 +22°C° 0 mm 1 mps 723 mmHg 67%
    23:00 +21°C° 0 mm 1 mps 723 mmHg 68%

    25 June, Sunday

    Time Temperature Precipitation Wind Pressure Humidity
    00:00 +19°C° 0 mm 0 mps 723 mmHg 68%
    01:00 +18°C° 0 mm 0 mps 723 mmHg 69%
    02:00 +20°C° 0 mm 1 mps 723 mmHg 69%
    03:00 +20°C° 0 mm 1 mps 723 mmHg 70%
    04:00 +21°C° 0 mm 1 mps 723 mmHg 67%
    05:00 +22°C° 0 mm 1 mps 723 mmHg 64%
    06:00 +24°C° 0 mm 2 mps 723 mmHg 62%
    07:00 +25°C° 0 mm 2 mps 723 mmHg 57%
    08:00 +27°C° 0 mm 3 mps 723 mmHg 52%
    09:00 +28°C° 0 mm 4 mps 723 mmHg 47%
    10:00 +29°C° 0 mm 4 mps 723 mmHg 44%
    11:00 +32°C° 0 mm 4 mps 723 mmHg 41%
    12:00 +33°C° 0 mm 4 mps 723 mmHg 38%
    13:00 +33°C° 0.1 mm 4 mps 723 mmHg 36%
    14:00 +34°C° 0.1 mm 3 mps 722 mmHg 34%
    15:00 +34°C° 0.1 mm 3 mps 722 mmHg 32%
    16:00 +34°C° 0 mm 2 mps 723 mmHg 34%
    17:00 +32°C° 0 mm 2 mps 723 mmHg 37%
    18:00 +32°C° 0 mm 1 mps 723 mmHg 39%
    19:00 +29°C° 0 mm 1 mps 724 mmHg 43%
    20:00 +27°C° 0 mm 2 mps 724 mmHg 48%
    21:00 +24°C° 0 mm 2 mps 725 mmHg 52%
    22:00 +24°C° 0 mm 2 mps 725 mmHg 55%
    23:00 +23°C° 0 mm 2 mps 725 mmHg 59%

    26 June, Monday

    Time Temperature Precipitation Wind Pressure Humidity
    00:00 +22°C° 0 mm 1 mps 725 mmHg 63%
    01:00 +21°C° 0 mm 1 mps 725 mmHg 65%
    02:00 +21°C° 0 mm 1 mps 726 mmHg 68%
    03:00 +20°C° 0 mm 1 mps 726 mmHg 70%
    04:00 +21°C° 0 mm 1 mps 726 mmHg 68%
    05:00 +23°C° 0 mm 1 mps 726 mmHg 65%
    06:00 +24°C° 0 mm 1 mps 727 mmHg 63%
    07:00 +25°C° 0 mm 2 mps 727 mmHg 58%
    08:00 +27°C° 0 mm 2 mps 727 mmHg 52%
    09:00 +28°C° 0 mm 3 mps 727 mmHg 47%
    10:00 +29°C° 0 mm 3 mps 727 mmHg 45%
    11:00 +30°C° 0 mm 4 mps 727 mmHg 42%
    12:00 +32°C° 0 mm 4 mps 726 mmHg 40%
    13:00 +33°C° 0 mm 4 mps 726 mmHg 39%
    14:00 +33°C° 0 mm 4 mps 726 mmHg 39%
    15:00 +34°C° 0 mm 4 mps 725 mmHg 38%
    16:00 +33°C° 0 mm 4 mps 726 mmHg 40%
    17:00 +32°C° 0 mm 4 mps 726 mmHg 42%
    18:00 +32°C° 0 mm 4 mps 726 mmHg 44%
    19:00 +29°C° 0 mm 4 mps 726 mmHg 49%
    20:00 +27°C° 0 mm 4 mps 727 mmHg 53%
    21:00 +25°C° 0 mm 4 mps 727 mmHg 58%
    22:00 +24°C° 0 mm 3 mps 727 mmHg 60%
    23:00 +22°C° 0 mm 3 mps 727 mmHg 62%

    27 June, Tuesday

    Time Temperature Precipitation Wind Pressure Humidity
    00:00 +22°C° 0 mm 3 mps 727 mmHg 64%
    01:00 +21°C° 0 mm 2 mps 727 mmHg 67%
    02:00 +20°C° 0 mm 2 mps 727 mmHg 70%
    03:00 +20°C° 0 mm 1 mps 727 mmHg 73%
    04:00 +21°C° 0 mm 1 mps 727 mmHg 71%
    05:00 +20°C° 0 mm 0 mps 727 mmHg 68%
    06:00 +22°C° 0 mm 0 mps 727 mmHg 66%
    07:00 +25°C° 0 mm 1 mps 727 mmHg 60%
    08:00 +26°C° 0 mm 1 mps 727 mmHg 55%
    09:00 +28°C° 0 mm 1 mps 727 mmHg 50%
    10:00 +29°C° 0 mm 2 mps 727 mmHg 46%
    11:00 +30°C° 0 mm 2 mps 726 mmHg 43%
    12:00 +31°C° 0 mm 2 mps 726 mmHg 40%
    13:00 +33°C° 0 mm 3 mps 726 mmHg 39%
    14:00 +34°C° 0 mm 3 mps 726 mmHg 38%
    15:00 +34°C° 0 mm 3 mps 725 mmHg 36%
    16:00 +34°C° 0 mm 3 mps 725 mmHg 39%
    17:00 +33°C° 0 mm 3 mps 725 mmHg 41%
    18:00 +33°C° 0 mm 3 mps 726 mmHg 43%
    19:00 +29°C° 0 mm 3 mps 726 mmHg 46%
    20:00 +27°C° 0 mm 3 mps 726 mmHg 50%
    21:00 +25°C° 0 mm 3 mps 726 mmHg 54%
    22:00 +25°C° 0 mm 3 mps 726 mmHg 54%
    23:00 +24°C° 0 mm 3 mps 727 mmHg 54%
    Show more